Regional Weather Roundup
Issued by NWS

Home | Current Version | Previous Version | Text Only | Print | Product List | Glossary Off
Versions: 1 2 3 4 5 6 7 8 9 10 11 12 13 14 15 16 17 18 19 20 21 22 23 24 25 26 27 28 29 30 31 32 33 34 35 36 37 38 39 40 41 42 43 44 45 46 47 48 49 50

000
ASUS45 KBOU 020907
RWRCO

WEATHER ROUNDUP FOR COLORADO
NATIONAL WEATHER SERVICE DENVER/BOULDER CO
300 AM MDT TUE SEP 02 2014

NOTE: "FAIR" INDICATES FEW OR NO CLOUDS BELOW 12000 FEET WITH NO
SIGNIFICANT WEATHER AND/OR OBSTRUCTIONS TO VISIBILITY.

COZ001>005-013-030-031-021000-
...NORTHWEST COLORADO...

CITY           SKY/WX    TMP DP  RH WIND       PRES   REMARKS
CRAIG          CLEAR     41  38  89 CALM      30.19S
HAYDEN         CLEAR     46  36  66 E9        30.20S
MEEKER         CLEAR     43  37  79 NE5       30.20S
MOUNT WERNER   NOT AVBL
STEAMBOAT SPGS CLEAR     43  37  80 CALM      30.23S
WALDEN         CLEAR     36  32  87 SE6       30.27S
$$

COZ006>008-011-021000-
...WEST CENTRAL VALLEYS...

CITY           SKY/WX    TMP DP  RH WIND       PRES   REMARKS
GRAND JUNCTION CLEAR     60  40  47 E10       30.06S
MONTROSE       CLEAR     58  37  45 SE10      30.16R
EAGLE          CLEAR     45  36  70 CALM      30.25S
RIFLE          CLEAR     51  40  65 E5        30.14S
DELTA          CLEAR     56  40  54 CALM      30.12S
NUCLA          CLEAR     55  34  44 CALM      30.18S
$$

COZ017>023-064>068-021000-
...SOUTHWEST COLORADO...

CITY           SKY/WX    TMP DP  RH WIND       PRES   REMARKS
DURANGO        CLEAR     48  33  56 CALM      30.18S
CORTEZ         CLEAR     51  38  60 NE5       30.13S
PAGOSA SPRINGS CLEAR     48  32  53 CALM      30.27S
TELLURIDE      CLEAR     50  34  53 E5        30.38S
WOLF CREEK PAS CLEAR     46  27  46 SW10      30.56F
$$

COZ009-010-012-014-032>034-037-058>063-021000-
...CENTRAL COLORADO...

CITY           SKY/WX    TMP DP  RH WIND       PRES   REMARKS
ASPEN          CLEAR     44  33  65 SW6       30.27F
BUENA VISTA    CLEAR     48  30  49 CALM      30.28S
COPPER MTN     CLEAR     45  28  53 S14       30.53S
BERTHOUD PASS  FAIR      37  36  93 W12G24    30.55S
COTTONWOOD PAS CLEAR     54  25  32 W7        30.39S
GUNNISON       CLEAR     39  30  70 CALM      30.33S
KREMMLING      CLEAR     36  32  87 CALM      30.29S
LEADVILLE      CLEAR     33  28  81 CALM      30.39F
MONARCH PASS   CLEAR     43  27  52 W23       30.63F
SALIDA         CLEAR     48  34  58 W5        30.34S
SUNLIGHT       CLEAR     45  32  61 CALM      30.46F
WILKERSON PASS NOT AVBL
$$

COZ069>075-021000-
...SAN LUIS VALLEY/SANGRE DE CRISTO MOUNTAINS...

CITY           SKY/WX    TMP DP  RH WIND       PRES   REMARKS
ALAMOSA        CLEAR     43  33  68 SE7       30.25S
LA VETA PASS   NOT AVBL
SAGUACHE       NOT AVBL
$$

COZ035-036-038>040-021000-
...NORTHERN COLORADO FRONT RANGE...

CITY           SKY/WX    TMP DP  RH WIND       PRES   REMARKS
DENVER INTL AP CLEAR     52  44  74 W6        30.16F
DMNS CITY PARK   N/A     53  44  71 N1        30.15F
AURORA         CLEAR     51  44  75 NW3       30.17F
FRONT RANGE AP NOT AVBL
ERIE MUNI ARPT CLEAR     49  46  90 CALM      30.15F
BOULDER MUN AP CLEAR     54  43  66 SW3       30.16S
CENTENNIAL     PTCLDY    53  43  68 W5        30.18S
BROOMFIELD     CLEAR     55  43  62 CALM      30.18F
FORT COLLINS   CLEAR     52  45  76 SW3       30.15F
LONGMONT       CLEAR     49  44  81 W5        30.17S
$$

COZ041-046-047-076>085-087-088-021000-
...PIKES PEAK/PALMER DIVIDE AND SOUTHERN FOOTHILLS...

CITY           SKY/WX    TMP DP  RH WIND       PRES   REMARKS
COLO. SPRINGS  PTCLDY    55  48  77 N3        30.19R
A. F. ACADEMY  CLEAR     49  43  79 N6        30.21R
ELLICOTT       MOCLDY    54  51  90 CALM      30.17R
FALCON         CLEAR     52  47  82 NW6       30.23R
FORT CARSON    PTCLDY    56  48  75 NW2       30.16R
LIMON          CLEAR     50  46  86 N6        30.12S
MONUMENT HILL  CLEAR     46  41  81 W10       30.23R
TRINIDAD       CLEAR     58  43  57 NW9       30.13R
$$

COZ042>045-048>051-090-091-021000-
...NORTHEAST COLORADO...

CITY           SKY/WX    TMP DP  RH WIND       PRES   REMARKS
GREELEY ARPT   CLEAR     52  41  66 CALM      30.14S
AKRON          CLEAR     50  47  89 MISG      30.10S
BURLINGTON     CLEAR     57  52  83 E7        30.08R
WRAY             N/A     55  53  92 E3        30.07S
STERLING       CLEAR     52  50  93 N5        30.08S
HOLYOKE        CLEAR     54  50  87 CALM      30.07F
FORT MORGAN    CLEAR     50  44  82 N5        30.11S
$$

COZ086-089-092>099-021000-
...SOUTHEAST COLORADO...

CITY           SKY/WX    TMP DP  RH WIND       PRES   REMARKS
PUEBLO         PTCLDY    63  52  67 NE6       30.09R
LA JUNTA       CLEAR     62  56  80 E6        30.04S
LAMAR          PTCLDY    61  58  90 CALM      30.02R
SPRINGFIELD      N/A     63  62  97 SE6       30.06R
$$



USA.gov is the U.S. government's official web portal to all federal, state and local government web resources and services.